Location: Newark
(34.0131°N, 4.3314°W)
Time: 15:04:48
(UTC+00:00)

SR - Pass Details

Date: 18 October 2019
Orbit: 574 x 882 km, 66.7° (Epoch: 14 November)

Event Time Altitude Azimuth Distance (km) Brightness Sun altitude
Rises 07:03:14 0° 345° (NNW) 3,458 ? 7.0°
Reaches altitude 10° 07:06:08 10° 357° (N) 2,535 ? 7.5°
Maximum altitude 07:11:05 27° 54° (NE) 1,637 ? 8.5°
Drops below altitude 10° 07:15:58 10° 111° (ESE) 2,514 ? 9.5°
Sets 07:18:48 0° 123° (ESE) 3,423 ? 10.0°
